www.pogodaiklimat.ru

Погода и климат >> Архив погоды >> Индия >> Гуджарат >> Порбандар


ПОГОДА в Порбандаре

  • Прогноз погоды в Порбандаре
  • Монитор погоды в Порбандаре

АРХИВ ПОГОДЫ в Порбандаре

Время (UTC), дата Ветер
(напр.,м/с)
 
Видим.   Явления Облачность Т
(С)
Тd
(С)
f
(%)
Тe
(С)
Тes
(С)
Комфортность P
(гПа)
Po
(гПа)
Тmin
(С)
Tmax
(С)
R
(мм)
R24
(мм)
S
(см)
18 12.06 В 6 4000 м 8/3 600 м
[Sc Ac trans]
+29.6 +24.1 72 +41 +41 опасность
перегрева
998.1 997.3 7
21 12.06 В 8 4000 м 5/5 600 м
[Sc]
+29.0 +23.5 72 +39 +39 очень
душно
997.0 996.2 7
00 13.06 С 9 4000 м 9/5 600 м
[Sc Ac trans]
+28.8 +23.9 75 +40 +40 очень
душно
995.6 994.8 7
03 13.06 С 11 4000 м {морось} 9/5 600 м
[Sc Ac trans]
+28.0 +26.0 89 +42 +42 опасность
перегрева
996.0 995.2 +26.4 7
06 13.06 С 13 4000 м слаб. морось 10/5 600 м
[Sc Ac trans]
+27.0 +25.6 92 +40 +40 очень
душно
995.3 994.5 0.4
09 13.06 СВ 15 4000 м слаб. морось 10/5 600 м
[Sc As op]
+28.2 +25.7 86 +42 +42 опасность
перегрева
992.6 991.8 0.5
12 13.06 СВ 15 2000 м слаб. дождь {морось} 10/6 360 м
[Frnb As op]
+26.0 +26.0 100 +39 +39 очень
душно
991.2 990.4 +28.6 3
15 13.06 СВ 15 2000 м {дождь, морось} 10/6 300 м
[Frnb As op]
+25.8 +24.4 92 +36 +36 очень
душно
993.6 992.8 8
18 13.06 В 13 4000 м в посл. час морось 10/6 300 м
[Frnb As op]
+25.8 +24.9 95 +37 +37 очень
душно
993.7 992.9 10
21 13.06 В 13 4000 м слаб. морось 10/6 300 м
[Frnb As op]
+27.0 +25.9 94 +40 +40 очень
душно
994.1 993.3 10
00 14.06 В 9 4000 м слаб. морось {дождь} 10/6 300 м
[Frnb As op]
+27.0 +26.2 95 +41 +41 опасность
перегрева
994.2 993.4 17
03 14.06 В 9 4000 м слаб. морось 10/6 300 м
[Frnb As op]
+27.0 +25.9 94 +40 +40 очень
душно
995.7 994.9 +24.5 18
06 14.06 В 10 4000 м слаб. морось 10/6 300 м
[Frnb As op]
+27.0 +26.4 97 +41 +41 опасность
перегрева
997.3 996.5 3
09 14.06 В 9 4000 м слаб. морось 10/6 450 м
[Frnb As op]
+27.8 +26.4 92 +42 +43 опасность
перегрева
996.3 995.5 4
12 14.06 В 15 4000 м {дождь, морось} 9/5 600 м
[Sc Ac trans]
+28.4 +26.4 89 +43 +43 опасность
перегрева
995.1 994.3 +28.7 7
15 14.06 В 10 4000 м {морось} 9/4 600 м
[Sc Ac trans]
+26.8 +25.1 90 +39 +39 очень
душно
995.9 995.1 7
18 14.06 В 11 4000 м {морось} 9/5 600 м
[Sc Ac trans]
+26.6 +26.0 97 +40 +40 очень
душно
997.7 996.9 7
21 14.06 В 9 4000 м {морось} 9/5 600 м
[Sc Ac trans]
+26.0 +25.1 95 +37 +37 очень
душно
997.3 996.5 7
00 15.06 В 6 4000 м слаб. морось 9/5 600 м
[Sc Ac trans]
+26.6 +25.7 95 +39 +39 очень
душно
997.7 996.9 11
03 15.06 В 8 2000 м морось {дождь} 9/5 450 м
[St Ac trans]
+26.4 +25.8 97 +39 +39 очень
душно
1000.1 999.3 +25.4 14
06 15.06 В 7 2000 м дождь {морось} 10/6 450 м
[Frnb As op]
+26.0 +25.4 97 +38 +38 очень
душно
1001.8 1001.0 12
09 15.06 В 5 4000 м {дождь} 9/5 600 м
[Sc Ac trans]
+28.8 +27.1 91 +46 +49 опасность
перегрева
1000.9 1000.1 16
12 15.06 В 6 4000 м в посл. час морось {дождь} 8/5 600 м
[Cu Sc Ac trans]
+29.0 +25.6 82 +43 +43 опасность
перегрева
999.9 999.1 +29.5 21
15 15.06 В 5 4000 м 8/0 2000 м
[Ac trans]
+28.0 +26.0 89 +42 +42 опасность
перегрева
1001.2 1000.4 21
18 15.06 В 5 4000 м 8/5 600 м
[Sc Ac trans]
+29.0 +27.3 91 +47 +47 опасность
перегрева
1002.7 1001.9 21
21 15.06 В 5 4000 м 8/5 600 м
[Sc Ac trans]
+28.8 +27.1 91 +46 +46 опасность
перегрева
1001.9 1001.1 21
00 16.06 В 5 4000 м мгла 8/4 600 м
[Sc Ac trans]
+28.8 +27.4 92 +46 +46 опасность
перегрева
1001.9 1001.1 21
03 16.06 В 6 4000 м мгла 5/5 450 м
[St]
+30.0 +27.5 86 +48 +49 опасность
перегрева
1002.6 1001.8 +27.2 21
06 16.06 ЮВ 6 4000 м мгла 5/5 600 м
[Sc]
+31.8 +27.1 76 +50 +53 опасность
перегрева
1004.0 1003.2
09 16.06 ЮВ 6 4000 м 5/5 600 м
[Sc]
+32.0 +27.6 78 +52 +55 опасность
перегрева
1003.4 1002.6
12 16.06 ЮВ 7 4000 м 6/6 600 м
[Sc]
+31.4 +27.3 79 +50 +50 опасность
перегрева
1002.4 1001.6 +32.5
15 16.06 В 6 4000 м 5/5 600 м
[Sc]
+29.6 +27.1 86 +47 +47 опасность
перегрева
1003.3 1002.5
18 16.06 ЮВ 5 4000 м мгла 8/8 600 м
[Sc]
+29.4 +27.5 90 +48 +48 опасность
перегрева
1004.1 1003.3
21 16.06 ЮВ 6 4000 м слаб. морось 8/8 600 м
[Sc]
+29.0 +27.6 92 +47 +47 опасность
перегрева
1003.0 1002.2
00 17.06 ЮВ 5 4000 м мгла 8/4 600 м
[Sc Ac trans]
+29.0 +27.1 90 +46 +46 опасность
перегрева
1002.7 1001.9
03 17.06 ЮВ 7 4000 м мгла 9/6 450 м
[St Ac trans]
+30.2 +26.4 80 +46 +47 опасность
перегрева
1003.9 1003.1 +28.6
06 17.06 Ю 8 4000 м мгла 9/5 600 м
[Sc Ac trans]
+31.4 +26.4 75 +48 +49 опасность
перегрева
1004.0 1003.2
09 17.06 Ю 9 4000 м мгла 9/5 600 м
[Sc Ac trans]
+31.6 +26.9 76 +49 +49 опасность
перегрева
1002.5 1001.7
12 17.06 Ю 8 4000 м мгла 9/5 600 м
[Sc Ac trans]
+30.6 +26.7 80 +48 +48 опасность
перегрева
1001.4 1000.6 +32.4
15 17.06 Ю 8 2000 м слаб. морось 9/6 450 м
[St Ac trans]
+29.4 +27.2 88 +47 +47 опасность
перегрева
1001.5 1000.7 0.0
18 17.06 Ю 5 2000 м мгла {дождь} 9/6 450 м
[St Ac trans]
+28.2 +26.5 91 +44 +44 опасность
перегрева
1001.7 1000.9 5
21 17.06 Ю 6 2000 м мгла 9/6 540 м
[St Ac trans]
+28.0 +27.4 97 +45 +45 опасность
перегрева
1001.2 1000.4 5
00 18.06 ЮЗ 6 2000 м слаб. морось {дождь} 9/6 450 м
[St Ac trans]
+27.6 +26.8 95 +43 +43 опасность
перегрева
1000.3 999.5 7
03 18.06 ЮЗ 5 2000 м мгла {дождь} 9/6 300 м
[Frnb Ac trans]
+27.8 +26.9 95 +44 +44 опасность
перегрева
1001.1 1000.3 +26.8 10
06 18.06 ЮЗ 9 2000 м в посл. час дождь {морось} 9/6 360 м
[Frnb Ac trans]
+28.2 +27.1 94 +45 +45 опасность
перегрева
1001.8 1001.0 3
09 18.06 З 8 2000 м мгла 9/6 360 м
[Frnb Ac trans]
+29.4 +26.9 86 +46 +47 опасность
перегрева
1001.4 1000.6 3
12 18.06 ЮЗ 6 4000 м мгла 9/6 360 м
[Frnb Ac trans]
+29.0 +26.7 87 +45 +45 опасность
перегрева
1000.5 999.7 +30.4 3
15 18.06 З 5 4000 м мгла 9/6 600 м
[Sc Ci fib]
+28.8 +27.1 91 +46 +46 опасность
перегрева
1001.6 1000.8 3
18 18.06 ЮЗ 5 4000 м мгла 6/0 2000 м
[Ac trans]
+28.6 +27.2 92 +45 +45 опасность
перегрева
1002.3 1001.5 3
21 18.06 Ю 6 4000 м мгла 8/6 450 м
[St Ac trans]
+28.4 +27.0 92 +45 +45 опасность
перегрева
1001.8 1001.0 3
00 19.06 ЮЗ 6 4000 м мгла 6/6 450 м
[St]
+28.4 +26.4 89 +43 +43 опасность
перегрева
1001.8 1001.0 3
03 19.06 З 5 4000 м мгла 8/6 600 м
[Cu Sc Cs]
+29.0 +26.8 88 +45 +46 опасность
перегрева
1002.8 1002.0 +27.8 3
06 19.06 ЮЗ 6 4000 м мгла 6/6 600 м
[Cu Sc]
+30.2 +26.6 81 +47 +50 опасность
перегрева
1003.4 1002.6
09 19.06 ЮЗ 5 4000 м мгла 6/6 600 м
[Cu Sc]
+31.0 +26.6 77 +47 +52 опасность
перегрева
1002.8 1002.0
12 19.06 ЮЗ 4 4000 м мгла 8/8 600 м
[Cu Sc]
+30.0 +26.9 84 +47 +48 опасность
перегрева
1002.8 1002.0 +31.5
15 19.06 Ю 5 4000 м мгла 5/5 600 м
[Sc]
+29.0 +27.1 90 +46 +46 опасность
перегрева
1003.0 1002.2

 

Местоположение метеостанции Порбандар (Гуджарат, Индия): широта 21.65 долгота 69.67 высота над уровнем моря 7 м.

В архиве по умолчанию представлена погода в Порбандаре за последнюю неделю. Архивные данные за месяц целиком и за предыдущие месяцы, начиная с января 2011 года, Вы можете получить, выбрав интересующий диапазон дат из раскрывающегося списка и нажав кнопку "Ввод!".


*Определитесь, кто Вы:
робот инопланетянин человек

Внимание! Время в таблицах - всемирное. Для получения местного времени необходимо прибавить поправку, которая равна 5.5 ч.

Смотрите также архив погоды в соседних городах и на ближайших метеорологических станциях:

Погода в Дварке (Гуджарат, Индия) (101 км)
Погода в Охе (Гуджарат, Индия) (108 км)
Погода в Веравале (Гуджарат, Индия) (111 км)
Погода в Раджкоте (Гуджарат, Индия) (135 км)
Погода в Мандви (Гуджарат, Индия) (136 км)
Погода в Амрели (Гуджарат, Индия) (160 км)
Погода в Нью-Кандле (Гуджарат, Индия) (160 км)
Погода в Диу (Даман и Диу, Индия) (166 км)
Погода в Кандле (Гуджарат, Индия) (168 км)
Погода в Бхудже (Гуджарат, Индия) (178 км)

Пояснения к столбцам:

Ветер - указаны скорость ветра в м/с - средняя за 10 мин, порывы в срок и между сроками (в фигурных скобках) и направление, откуда дует ветер: С - северный, СВ - северо-восточный, В - восточный, ЮВ - юго-восточный, Ю - южный, ЮЗ - юго-западный, З - западный, СЗ - северо-западный.
Видимость - горизонтальная дальность видимости в метрах или километрах. При видимости от 1 до 10 км при отсутствии осадков обычно наблюдается дымка, при ухудшении видимости до 1 км и менее - туман. В сухую погоду видимость может ухудшаться дымом, пылью или мглою.
Явления - указаны атмосферные явления, наблюдавшиеся в срок или в последний час перед сроком; фигурными скобками обозначены явления, наблюдавшиеся между сроками (за 1-3 часа до срока); квадратными скобками обозначены град или гололедные отложения с указанием их диаметра в мм.
Облачность - указаны через наклонную черту общая и нижняя облачность в баллах и высота нижней границы облаков в метрах; квадратными скобками обозначены формы облаков: Ci - перистые, Cs - перисто-слоистые, Cc - перисто-кучевые, Ac - высококучевые, As - высокослоистые, Sc - слоисто-кучевые, Ns - слоисто-дождевые, Cu - кучевые, Cb - кучево-дождевые. Подробнее классификацию облаков см. в Атласе облаков (PDF).
T - Температура воздуха - температура, измеренная на высоте 2 м над землей.
Td - Температура точки росы - температура, при понижении до которой содержащийся в воздухе водяной пар достигнет насыщения.
f - Относительная влажность воздуха - влажноcть воздуха, измеренная на высоте 2 м над землей.
Te - Эффективная температура - температура, которую ощущает одетый по сезону человек в тени. Характеристика душности погоды. При расчете учитывается влияние влажности воздуха и скорости ветра на теплоощущения человека.
Tes - Эффективная температура на солнце - температура, которую ощущает человек, с поправкой на солнечный нагрев. Характеристика знойности погоды. Зависит от высоты солнца над горизонтом, облачности и скорости ветра. Ночью, в пасмурную погоду, а также при ветре 12 м/с и более поправка равна нулю.
P - Атмосферное давление - приведенное к уровню моря атмосферное давление.
Po - Атмосферное давление - измеренное на уровне метеостанции атмосферное давление.
Tmin - Минимальная температура - минимум температуры воздуха на высоте 2 м над землей.
Tmax - Максимальная температура - максимум температуры воздуха на высоте 2 м над землей.
R - Количество осадков - Количество выпавших осадков за период времени, мм. При наведении курсора мыши на число - период времени, за который выпало указанное количество осадков.
R24 - Количество осадков - Количество выпавших осадков за 24 часа, мм.
S - Снежный покров - Высота снежного покрова, см. При наведении курсора мыши на число - состояние снежного покрова и степень покрытия местности в баллах.